Tracking 35334 objects as of 12-Sep-2026
HD Live streaming from Space Station
objects crossing your sky now

FLOCK 4A 20


FLOCK 4A 20 is no longer on orbit
FLOCK 4A 20 is classified as:


NORAD ID: 44091
Int'l Code: 2019-018P
Launch date: April 1, 2019
Source: United States (US)
Launch site: SRIHARIKOTA (SRI)
Decay date: 2023-04-08
Your satellite tracking list
Your tracking list is empty




NASA's NSSDC Master Catalog

Two Line Element Set (TLE):
1 44091U 19018P   23096.22862795  .14571496  24263-5  14910-2 0  9994
2 44091  97.2284 163.8959 0014717 291.0562  68.9163 16.37598117224007
Source of the keplerian elements: AFSPC